#timestamp,LO_Frequency,Hit,StdDev 
1542056445.4,286046997.9,E
1542056455.3,286046999.6,N
1542056475.1,286047001.1,P
1542056495.9,286047001.0,N
1542056515.7,286046998.6,N
1542056535.5,286046996.7,Y
1542056555.4,286046997.3,P
1542056575.2,286046997.2,N
1542056595.1,286046995.8,P
1542056596.0,286046995.8,N
1542056615.8,286046995.0,Y
1542056635.6,286047001.2,P
1542056655.5,286047001.2,N
1542056675.3,286046999.2,N
1542056695.1,286046999.0,N
1542056715.9,286046998.4,N
1542056735.7,286046999.6,N
1542056755.6,286046998.7,N
1542056775.4,286046998.4,N
1542056795.2,286047001.1,N
1542056815.1,286047000.9,N
1542056816.0,286047000.9,N
1542056835.8,286047000.1,N
1542056855.6,286047000.0,N
1542056875.5,286047000.6,N
1542056895.3,286046998.8,N
1542056915.2,286046996.5,N
1542056935.9,286046996.9,N
1542056955.7,286046996.6,N
1542056975.6,286046997.3,N
1542056995.4,286046995.3,Y
1542057015.2,286046995.4,P
1542057035.1,286046995.9,N
1542057036.0,286046995.9,N
1542057055.8,286046993.6,Y
1542057075.7,286046996.6,P
1542057095.5,286046999.1,P
1542057115.3,286046999.3,N
1542057135.2,286046999.6,N
1542057155.0,286046999.2,N
1542057155.9,286046999.2,N
1542057175.7,286046998.2,N
1542057195.6,286046998.6,N
1542057215.4,286046999.1,N
1542057235.3,286046996.8,Y
1542057285.1,286046997.8,E
1542057295.0,286046996.6,N
1542057295.9,286046996.6,P
1542057315.8,286046999.4,P
1542057335.6,286046999.1,N
1542057355.5,286046998.3,N
1542057375.3,286046998.1,N
1542057395.1,286046999.1,N
1542057415.9,286046998.4,N
1542057435.7,286046998.7,N
1542057455.5,286046996.5,Y
1542057475.4,286046998.3,P
1542057495.2,286046999.5,P
1542057515.1,286046998.4,N
1542057516.0,286046998.4,Y
1542057535.8,286046998.7,P
1542057555.6,286046998.8,P
1542057575.5,286046998.3,P
1542057595.3,286046999.0,Y
1542057615.1,286046998.5,P
1542057635.9,286046999.2,P
1542057655.7,286046998.4,P
1542057675.6,286046998.9,Y
1542057695.4,286046998.5,P
1542057715.2,286046998.3,P
1542057735.1,286047002.8,P
1542057736.0,286047002.8,N
1542057755.8,286047000.8,N
1542057775.7,286047000.8,N
1542057795.5,286047000.1,N
1542057815.3,286046999.3,N
1542057835.2,286046999.5,N
1542057855.9,286046996.9,N
1542057875.7,286046997.9,N
1542057895.6,286046996.7,N
1542057915.4,286046995.0,N
1542057935.2,286046995.2,N
1542057955.1,286046995.0,N
1542057956.0,286046995.0,N
1542057975.8,286046997.8,N
1542057995.7,286046997.6,N
1542058015.5,286046995.9,N
1542058035.3,286046996.0,N
1542058055.2,286046995.6,N
1542058075.0,286046996.2,N
1542058075.9,286046996.2,N
1542058095.8,286046993.6,N
1542058115.6,286046994.0,N
1542058135.4,286046993.5,N
1542058155.3,286046993.9,N
1542058175.1,286046993.4,N
1542058176.0,286046993.4,N
1542058195.8,286046994.7,N
1542058215.7,286046994.2,N
1542058235.5,286046996.2,N
1542058255.4,286046993.9,N
1542058275.2,286046993.8,N
1542058295.0,286046994.7,N
1542058295.9,286046994.7,N
1542058315.8,286046994.6,N
1542058335.6,286046993.9,Y
1542058355.4,286046997.8,P
1542058375.3,286046997.8,N
1542058395.1,286046997.9,N
1542058415.9,286046994.9,Y
1542058435.7,286046998.3,P
1542058455.5,286046996.5,P
1542058475.4,286046998.4,N
1542058495.2,286046998.9,N
1542058515.0,286046998.2,N
1542058515.9,286046998.2,N
1542058535.8,286046998.4,N
1542058555.6,286046999.4,N
1542058575.5,286046998.9,N
1542058595.3,286046997.3,Y
1542058615.1,286047000.7,P
1542058635.9,286046999.2,N
1542058655.7,286046999.5,N
1542058675.5,286046998.6,N
1542058695.4,286046998.2,N
1542058715.2,286046999.5,N
1542058735.1,286046999.3,N
1542058736.0,286046999.3,N
1542058755.8,286046996.6,Y
1542058775.6,286046998.8,P
1542058795.5,286046999.3,P
1542058815.3,286046999.2,P
1542058835.1,286046996.7,Y
1542058855.9,286046998.3,P
1542058875.7,286046999.0,N
1542058895.6,286046997.4,P
1542058915.4,286046997.5,Y
1542058935.2,286046999.3,P
1542058955.1,286046998.9,N
1542058956.0,286046998.9,P
1542058975.8,286046999.9,N
1542058995.7,286046999.5,N
1542059015.5,286046996.6,Y
1542059035.3,286046998.9,P
1542059055.2,286046997.1,P
1542059075.0,286046995.3,P
1542059075.9,286046995.3,Y
1542059095.7,286046997.7,P
1542059115.6,286046997.7,P
1542059135.4,286046997.4,P
1542059155.3,286046997.2,Y
1542059175.1,286047000.1,P
1542059195.8,286047002.5,N
1542059215.7,286046998.6,N
1542059235.5,286046998.3,N
1542059255.4,286047001.1,N
1542059275.2,286047000.8,N
1542059295.0,286046999.8,N
1542059295.9,286046999.8,N
1542059315.8,286047002.2,N
1542059365.6,286047001.1,E
1542059375.6,286046998.2,N
1542059395.4,286047001.1,P
1542059415.2,286046999.1,N
1542059435.1,286046995.3,Y
1542059436.0,286046995.3,P
1542059455.8,286046998.8,N
1542059475.6,286046998.9,N
1542059495.5,286046998.6,N
1542059515.3,286046999.1,N
1542059535.2,286046998.9,N
1542059555.0,286046999.3,N
1542059555.9,286046999.3,N
1542059575.7,286046995.0,Y
1542059595.6,286046996.6,P
1542059615.4,286046997.1,N
1542059635.3,286046996.9,P
1542059655.1,286046996.8,Y
1542059675.8,286046998.1,P
1542059695.7,286046998.6,P
1542059715.5,286047000.0,N
1542059735.4,286046998.9,N
1542059755.2,286046998.5,N
1542059775.0,286046999.0,N
1542059775.9,286046999.0,N
1542059795.8,286046999.5,N
1542059815.6,286046997.4,Y
1542059835.4,286046996.5,P
1542059855.3,286046999.2,N
1542059875.1,286046999.3,N
1542059895.9,286046999.4,N
1542059915.7,286046998.8,N
1542059935.5,286046998.8,N
1542059955.4,286047000.9,N
1542059975.2,286046998.1,N
1542059995.0,286046999.3,N
1542059995.9,286046999.3,N
